• în Republica Moldova
  • Lista ţărilor
  • Pe 7 zile
  • Temperatura apei
  • Hartă satelitară
  • Meteo pe hartă
  • Widget-uri
  • user-avatar
    Intrare

    Meteo pe oră la Brest

    Astăzi, 21 Octombrie, Duminică

    Timp Temperatura Precipitaţii Vânt Presiune Umiditate
    00:00 +8°C° 0 mm 2 m/s 755 mmHg 72%
    01:00 +7°C° 0 mm 2 m/s 755 mmHg 73%
    02:00 +7°C° 0 mm 2 m/s 755 mmHg 74%
    03:00 +7°C° 0 mm 2 m/s 755 mmHg 75%
    04:00 +6°C° 0 mm 2 m/s 755 mmHg 77%
    05:00 +6°C° 0 mm 2 m/s 755 mmHg 79%
    06:00 +6°C° 0 mm 2 m/s 756 mmHg 80%
    07:00 +5°C° 0 mm 2 m/s 756 mmHg 80%
    08:00 +6°C° 0 mm 2 m/s 757 mmHg 78%
    09:00 +7°C° 0 mm 2 m/s 757 mmHg 72%
    10:00 +8°C° 0 mm 2 m/s 757 mmHg 66%
    11:00 +10°C° 0 mm 2 m/s 757 mmHg 59%
    12:00 +12°C° 0 mm 2 m/s 757 mmHg 57%
    13:00 +12°C° 0 mm 2 m/s 757 mmHg 54%
    14:00 +12°C° 0 mm 3 m/s 757 mmHg 51%
    15:00 +12°C° 0 mm 2 m/s 757 mmHg 55%
    16:00 +10°C° 0 mm 2 m/s 757 mmHg 59%
    17:00 +10°C° 0 mm 2 m/s 757 mmHg 62%
    18:00 +10°C° 0 mm 1 m/s 757 mmHg 66%
    19:00 +9°C° 0 mm 1 m/s 757 mmHg 69%
    20:00 +8°C° 0 mm 1 m/s 758 mmHg 73%
    21:00 +8°C° 0 mm 1 m/s 758 mmHg 75%
    22:00 +6°C° 0 mm 0 m/s 758 mmHg 77%
    23:00 +6°C° 0 mm 0 m/s 758 mmHg 78%

    Mâine, 22 Octombrie, Luni

    Timp Temperatura Precipitaţii Vânt Presiune Umiditate
    00:00 +6°C° 0 mm 0 m/s 758 mmHg 80%
    01:00 +5°C° 0 mm 0 m/s 758 mmHg 81%
    02:00 +5°C° 0 mm 0 m/s 758 mmHg 82%
    03:00 +6°C° 0 mm 1 m/s 757 mmHg 83%
    04:00 +6°C° 0 mm 1 m/s 757 mmHg 85%
    05:00 +5°C° 0 mm 1 m/s 757 mmHg 86%
    06:00 +5°C° 0 mm 1 m/s 757 mmHg 86%
    07:00 +6°C° 0 mm 1 m/s 757 mmHg 85%
    08:00 +6°C° 0 mm 1 m/s 757 mmHg 85%
    09:00 +7°C° 0 mm 1 m/s 757 mmHg 77%
    10:00 +8°C° 0 mm 2 m/s 757 mmHg 70%
    11:00 +10°C° 0 mm 2 m/s 756 mmHg 62%
    12:00 +12°C° 0 mm 2 m/s 756 mmHg 59%
    13:00 +11°C° 0 mm 3 m/s 755 mmHg 56%
    14:00 +12°C° 0 mm 3 m/s 755 mmHg 53%
    15:00 +11°C° 0 mm 3 m/s 754 mmHg 57%
    16:00 +10°C° 0 mm 3 m/s 754 mmHg 60%
    17:00 +10°C° 0 mm 3 m/s 753 mmHg 64%
    18:00 +9°C° 0 mm 3 m/s 753 mmHg 66%
    19:00 +8°C° 0 mm 3 m/s 753 mmHg 69%
    20:00 +8°C° 0 mm 3 m/s 753 mmHg 72%
    21:00 +8°C° 0.5 mm 3 m/s 752 mmHg 76%
    22:00 +7°C° 0.5 mm 4 m/s 752 mmHg 80%
    23:00 +7°C° 0.5 mm 4 m/s 752 mmHg 84%

    Poimâine, 23 Octombrie, Marţi

    Timp Temperatura Precipitaţii Vânt Presiune Umiditate
    00:00 +7°C° 0.3 mm 4 m/s 752 mmHg 85%
    01:00 +6°C° 0.3 mm 4 m/s 752 mmHg 86%
    02:00 +6°C° 0.3 mm 4 m/s 752 mmHg 87%
    03:00 +5°C° 0 mm 4 m/s 752 mmHg 88%
    04:00 +4°C° 0 mm 4 m/s 751 mmHg 90%
    05:00 +4°C° 0 mm 3 m/s 751 mmHg 91%
    06:00 +4°C° 0 mm 3 m/s 751 mmHg 90%
    07:00 +4°C° 0 mm 4 m/s 751 mmHg 89%
    08:00 +4°C° 0 mm 4 m/s 751 mmHg 87%
    09:00 +5°C° 0 mm 4 m/s 750 mmHg 82%
    10:00 +6°C° 0 mm 5 m/s 750 mmHg 76%
    11:00 +7°C° 0 mm 5 m/s 749 mmHg 70%
    12:00 +7°C° 0.2 mm 6 m/s 748 mmHg 69%
    13:00 +6°C° 0.2 mm 7 m/s 747 mmHg 68%
    14:00 +6°C° 0.2 mm 7 m/s 746 mmHg 68%
    15:00 +5°C° 0.2 mm 8 m/s 745 mmHg 70%
    16:00 +5°C° 0.2 mm 8 m/s 743 mmHg 72%
    17:00 +5°C° 0.2 mm 8 m/s 742 mmHg 74%
    18:00 +5°C° 0.7 mm 9 m/s 740 mmHg 77%
    19:00 +5°C° 0.7 mm 9 m/s 739 mmHg 79%
    20:00 +5°C° 0.7 mm 10 m/s 737 mmHg 81%
    21:00 +5°C° 1.2 mm 10 m/s 736 mmHg 82%
    22:00 +5°C° 1.2 mm 10 m/s 734 mmHg 83%
    23:00 +6°C° 1.2 mm 10 m/s 733 mmHg 85%

    24 Octombrie, Miercuri

    Timp Temperatura Precipitaţii Vânt Presiune Umiditate
    00:00 +6°C° 1.1 mm 9 m/s 732 mmHg 85%
    01:00 +6°C° 1.1 mm 8 m/s 731 mmHg 86%
    02:00 +8°C° 1.1 mm 7 m/s 730 mmHg 86%
    03:00 +6°C° 0.3 mm 8 m/s 729 mmHg 84%
    04:00 +6°C° 0.3 mm 8 m/s 729 mmHg 82%
    05:00 +5°C° 0.3 mm 8 m/s 729 mmHg 80%
    06:00 +3°C° 0.7 mm 9 m/s 730 mmHg 75%
    07:00 +3°C° 0.7 mm 9 m/s 730 mmHg 71%
    08:00 +2°C° 0.7 mm 10 m/s 731 mmHg 67%
    09:00 +3°C° 0 mm 10 m/s 732 mmHg 64%
    10:00 +3°C° 0 mm 10 m/s 732 mmHg 62%
    11:00 +3°C° 0 mm 10 m/s 732 mmHg 60%
    12:00 +3°C° 1.4 mm 11 m/s 732 mmHg 63%
    13:00 +4°C° 1.4 mm 11 m/s 732 mmHg 66%
    14:00 +4°C° 1.4 mm 12 m/s 732 mmHg 69%
    15:00 +4°C° 1 mm 12 m/s 732 mmHg 70%
    16:00 +4°C° 1 mm 12 m/s 732 mmHg 72%
    17:00 +4°C° 1 mm 12 m/s 733 mmHg 73%
    18:00 +4°C° 0.7 mm 11 m/s 734 mmHg 75%
    19:00 +5°C° 0.7 mm 10 m/s 735 mmHg 77%
    20:00 +5°C° 0.7 mm 9 m/s 736 mmHg 79%
    21:00 +3°C° 0.1 mm 9 m/s 737 mmHg 78%
    22:00 +3°C° 0.1 mm 9 m/s 738 mmHg 76%
    23:00 +3°C° 0.1 mm 9 m/s 738 mmHg 75%

    25 Octombrie, Joi

    Timp Temperatura Precipitaţii Vânt Presiune Umiditate
    00:00 +4°C° 0 mm 8 m/s 739 mmHg 75%
    01:00 +2°C° 0 mm 8 m/s 739 mmHg 76%
    02:00 +2°C° 0 mm 8 m/s 740 mmHg 77%
    03:00 +2°C° 0 mm 8 m/s 740 mmHg 77%
    04:00 +2°C° 0 mm 8 m/s 740 mmHg 77%
    05:00 +2°C° 0 mm 8 m/s 741 mmHg 77%
    06:00 +2°C° 0 mm 7 m/s 741 mmHg 77%
    07:00 +2°C° 0 mm 7 m/s 741 mmHg 78%
    08:00 +2°C° 0 mm 6 m/s 741 mmHg 78%
    09:00 +2°C° 0 mm 6 m/s 741 mmHg 74%
    10:00 +3°C° 0 mm 6 m/s 740 mmHg 71%
    11:00 +4°C° 0 mm 6 m/s 740 mmHg 67%
    12:00 +5°C° 0.5 mm 5 m/s 739 mmHg 72%
    13:00 +5°C° 0.5 mm 5 m/s 739 mmHg 77%
    14:00 +5°C° 0.5 mm 4 m/s 738 mmHg 83%
    15:00 +5°C° 0.2 mm 4 m/s 738 mmHg 83%
    16:00 +6°C° 0.2 mm 4 m/s 738 mmHg 84%
    17:00 +6°C° 0.2 mm 4 m/s 737 mmHg 85%
    18:00 +6°C° 0.2 mm 5 m/s 738 mmHg 84%
    19:00 +6°C° 0.2 mm 5 m/s 738 mmHg 83%
    20:00 +7°C° 0.2 mm 6 m/s 738 mmHg 82%
    21:00 +6°C° 0 mm 5 m/s 739 mmHg 84%
    22:00 +5°C° 0 mm 5 m/s 739 mmHg 85%
    23:00 +5°C° 0 mm 5 m/s 740 mmHg 86%

    26 Octombrie, Vineri

    Timp Temperatura Precipitaţii Vânt Presiune Umiditate
    00:00 +5°C° 0 mm 5 m/s 740 mmHg 87%
    01:00 +5°C° 0 mm 5 m/s 740 mmHg 87%
    02:00 +3°C° 0 mm 5 m/s 741 mmHg 88%
    03:00 +3°C° 0 mm 5 m/s 741 mmHg 89%
    04:00 +3°C° 0 mm 5 m/s 741 mmHg 89%
    05:00 +3°C° 0 mm 5 m/s 742 mmHg 90%
    06:00 +4°C° 0 mm 4 m/s 742 mmHg 91%
    07:00 +4°C° 0 mm 4 m/s 742 mmHg 92%
    08:00 +4°C° 0 mm 4 m/s 743 mmHg 93%
    09:00 +5°C° 0 mm 4 m/s 743 mmHg 86%
    10:00 +6°C° 0 mm 4 m/s 743 mmHg 80%
    11:00 +8°C° 0 mm 4 m/s 743 mmHg 74%
    12:00 +10°C° 0 mm 4 m/s 743 mmHg 71%
    13:00 +10°C° 0 mm 4 m/s 743 mmHg 68%
    14:00 +10°C° 0 mm 5 m/s 743 mmHg 64%
    15:00 +10°C° 0 mm 4 m/s 743 mmHg 69%
    16:00 +10°C° 0 mm 4 m/s 743 mmHg 74%
    17:00 +9°C° 0 mm 3 m/s 743 mmHg 79%
    18:00 +9°C° 0 mm 3 m/s 743 mmHg 83%
    19:00 +8°C° 0 mm 3 m/s 743 mmHg 87%
    20:00 +8°C° 0 mm 3 m/s 743 mmHg 91%
    21:00 +7°C° 0 mm 4 m/s 742 mmHg 90%
    22:00 +7°C° 0 mm 4 m/s 742 mmHg 89%
    23:00 +7°C° 0 mm 4 m/s 742 mmHg 89%
    Arată mai mult